Reno, NV

4:28 AM PDT on April 23, 2017 (GMT -0700)
Reno-Tahoe International

Weather History for KRNO - October, 2013

Change the Weather History Date:

Sunday, October 6, 2013

  Actual Average Record
Temperature  
Mean Temperature 56 °F 58 °F  
Max Temperature 79 °F 74 °F 88 °F (1942)
Min Temperature 33 °F 42 °F 18 °F (1969)
Degree Days  
Heating Degree Days 9 8  
Month to date heating degree days 68 41  
Since 1 July heating degree days 153 131  
Cooling Degree Days 0 0  
Month to date cooling degree days 0 4  
Year to date cooling degree days 1174 838  
Growing Degree Days 6 (Base 50)    
Moisture  
Dew Point 20 °F    
Average Humidity 35    
Maximum Humidity 61    
Minimum Humidity 9    
Precipitation  
Precipitation 0.00 in 0.01 in 0.40 in (1916)
Month to date precipitation 0.00 0.09  
Year to date precipitation 3.06 5.13  
Snow  
Snow 0.00 in 0.00 in T in (1916)
Month to date snowfall 0.0 0.0  
Since 1 July snowfall T 0.1  
Since 1 September snowfall 0.0 0.1  
Snow Depth 0.00 in    
Sea Level Pressure  
Sea Level Pressure 30.17 in    
Wind  
Wind Speed 1 mph (WNW)    
Max Wind Speed 13 mph    
Max Gust Speed 23 mph    
Visibility 10 miles    
Events      
T = Trace of Precipitation, MM = Missing Value Source: NWS Daily Summary

Daily Weather History Graph

Daily Weather History Graph

Search for Another Location

Airport or City:

Trip Planner

Search our weather history database for the weather conditions in past years. The results will help you decide how hot, cold, wet, or windy it might be!

Date:

Astronomy

Oct. 06, 2013 Rise Set
Actual Time 7:00 AM PDT 6:33 PM PDT
Civil Twilight 6:33 AM PDT 6:59 PM PDT
Nautical Twilight 6:02 AM PDT 7:31 PM PDT
Astronomical Twilight 5:31 AM PDT 8:02 PM PDT
Moon 8:49 AM PDT (10/6) 7:36 PM PDT (10/6)
Length of Visible Light 12h 26m
Length of Day
11h 32m
Waxing Crescent, 4% of the Moon is Illuminated
Oct 6
Waxing Crescent
Oct 11
First Quarter
Oct 18
Full
Oct 26
Last Quarter
Nov 3
New

Hourly Weather History & Observations

Time (PDT) Temp. Windchill Dew Point Humidity Pressure Visibility Wind Dir Wind Speed Gust Speed Precip Events Conditions
12:55 AM 44.1 °F - 23.0 °F 43% 30.29 in 10.0 mi Calm Calm - N/A   Clear
1:55 AM 44.1 °F 42.5 °F 17.1 °F 34% 30.28 in 10.0 mi WNW 3.5 mph - N/A   Clear
2:55 AM 39.9 °F - 23.0 °F 51% 30.27 in 10.0 mi Calm Calm - N/A   Clear
3:55 AM 37.0 °F - 21.9 °F 54% 30.26 in 10.0 mi Calm Calm - N/A   Clear
4:55 AM 36.0 °F - 21.0 °F 55% 30.26 in 10.0 mi Calm Calm - N/A   Clear
5:55 AM 36.0 °F - 23.0 °F 59% 30.27 in 10.0 mi Calm Calm - N/A   Clear
6:55 AM 34.0 °F - 21.0 °F 59% 30.29 in 10.0 mi Calm Calm - N/A   Clear
7:55 AM 37.0 °F - 24.1 °F 59% 30.28 in 10.0 mi Calm Calm - N/A   Clear
8:55 AM 42.1 °F - 21.9 °F 45% 30.28 in 10.0 mi Calm Calm - N/A   Partly Cloudy
9:55 AM 48.9 °F - 19.0 °F 31% 30.28 in 10.0 mi Calm Calm - N/A   Partly Cloudy
10:55 AM 55.9 °F - 17.1 °F 22% 30.24 in 10.0 mi Calm Calm - N/A   Scattered Clouds
11:55 AM 62.1 °F - 19.0 °F 19% 30.20 in 10.0 mi SSW 4.6 mph - N/A   Scattered Clouds
12:55 PM 68.0 °F - 19.0 °F 15% 30.15 in 10.0 mi Calm Calm - N/A   Scattered Clouds
1:55 PM 73.9 °F - 18.0 °F 12% 30.10 in 10.0 mi Calm Calm - N/A   Mostly Cloudy
2:55 PM 77.0 °F - 17.1 °F 10% 30.07 in 10.0 mi Calm Calm - N/A   Mostly Cloudy
3:55 PM 78.1 °F - 16.0 °F 10% 30.06 in 10.0 mi Calm Calm - N/A   Mostly Cloudy
4:55 PM 78.1 °F - 15.1 °F 9% 30.04 in 10.0 mi Calm Calm - N/A   Mostly Cloudy
5:55 PM 77.0 °F - 16.0 °F 10% 30.04 in 10.0 mi Calm Calm - N/A   Mostly Cloudy
6:55 PM 71.1 °F - 16.0 °F 12% 30.06 in 10.0 mi NNE 6.9 mph - N/A   Mostly Cloudy
7:55 PM 66.0 °F - 17.1 °F 15% 30.06 in 10.0 mi North 6.9 mph - N/A   Mostly Cloudy
8:55 PM 61.0 °F - 19.9 °F 21% 30.09 in 10.0 mi South 3.5 mph - N/A   Mostly Cloudy
9:55 PM 61.0 °F - 19.0 °F 20% 30.08 in 10.0 mi North 5.8 mph - N/A   Mostly Cloudy
10:55 PM 53.1 °F - 24.1 °F 32% 30.09 in 10.0 mi SSW 3.5 mph - N/A   Mostly Cloudy
11:55 PM 51.1 °F - 25.0 °F 36% 30.06 in 10.0 mi Calm Calm - N/A   Mostly Cloudy